Dewpoint
-7 -7 -5 -1 -5 -3 -1 -1 -3 2 -1 13 6 7 6 8 8 8 10 7 -4 -8 -3 0 3 7 8 8 8 8 7 6 5 2 1 2 2 3 4 4 4 4 3 3 3 2 1 4 9
-9 -6 -1 -3 -4 -2 1 -4 0 5 11 11 12 12 12 10 11 10 8 3 -5 -10 -7 -2 1 5 8 9 9 9 8 7 6 4 2 1 2 3 3 4 5 4 4 3 3 4 3 3 10
-9 -6 -3 -2 -2 -4 -3 -6 -7 -5 12 12 13 13 12 12 11 8 7 -2 -8 -10 -10 -8 -2 5 7 8 8 8 8 8 7 6 4 4 3 3 3 4 5 5 4 4 4 4 4 4 4
-11 -4 -4 -3 -1 -3 -4 -6 -8 -8 9 13 12 14 13 12 11 8 6 3 -2 -3 -6 -8 -9 -8 -4 -1 3 5 6 7 8 6 6 5 4 3 3 3 5 5 5 5 4 4 4 4 4
-11 -6 -3 -2 -3 -5 -7 -8 -7 -5 3 13 14 14 15 13 10 8 7 6 4 2 -2 -3 -5 -5 -7 -9 -7 -2 2 4 6 5 5 4 4 2 2 2 3 4 4 4 4 5 4 4 4
-11 -6 -3 -3 -4 -6 -8 -9 -8 -8 1 12 13 15 14 13 11 10 9 8 5 4 2 1 -0 -0 -1 -3 -5 -4 -1 0 3 2 2 4 2 2 1 1 2 3 4 4 4 5 5 4 4
-11 -9 -6 -4 -6 -7 -8 -9 -9 -9 3 12 13 14 13 13 12 12 10 9 6 4 5 3 1 2 2 1 0 -2 -2 -2 -1 0 1 2 2 2 1 1 2 3 3 4 5 5 5 5 5
-9 -11 -7 -7 -6 -8 -9 -9 -10 -10 -5 7 12 12 12 12 13 13 11 9 7 6 5 3 3 3 2 3 3 3 2 1 0 0 1 2 2 2 3 3 3 4 4 5 5 6 6 6 7
-9 -8 -7 -8 -9 -9 -8 -8 -9 -10 -9 -8 10 7 9 11 14 14 12 9 9 8 6 4 4 3 4 4 5 5 5 5 4 4 4 4 5 5 6 6 6 6 7 7 7 7 7 8 8
-8 -8 -9 -10 -9 -7 -4 -7 -7 -9 -9 -0 -4 -5 -5 -1 13 15 14 13 12 11 9 7 6 5 5 6 6 6 6 6 7 7 7 7 8 8 9 9 9 9 10 10 10 10 9 9 9
-4 -5 -8 -6 -2 -1 -4 -3 -4 -8 -6 -8 -8 -4 -4 3 12 14 15 14 14 13 12 9 8 7 7 7 7 7 7 7 8 8 9 9 9 9 9 10 10 11 11 11 11 13 13 12 12
-0 -2 -2 -1 -1 -1 -2 -2 -5 -4 -6 -6 -6 -6 -5 4 8 12 12 13 14 14 14 13 12 10 9 9 8 8 8 8 8 9 10 10 10 10 9 9 10 9 11 11 12 11 11 11 11
-1 -0 1 0 -1 -2 -3 -2 -3 -4 -7 -4 -4 -6 -7 3 7 10 12 13 14 14 14 14 14 14 13 11 10 9 9 9 10 10 10 10 9 5 0 1 1 3 7 10 10 11 10 10 11
2 2 1 -1 -3 -3 -2 -3 -5 -5 -2 -2 -3 -6 -2 3 3 8 12 12 13 13 14 14 13 12 12 11 11 10 10 10 10 10 10 9 1 -1 -3 -2 -1 1 6 9 10 9 10 11 10
3 2 0 -3 -3 -3 -3 -3 -4 -3 -2 -2 -2 -4 -7 -4 4 4 3 3 6 13 14 14 13 12 11 11 11 11 11 10 10 11 9 3 1 -1 -4 -4 -3 -2 2 5 8 9 10 10 11
2 1 -1 -7 -2 -2 -2 1 -2 -1 -1 -2 -2 -2 -3 -6 -5 -2 4 6 7 11 13 14 14 13 11 11 11 11 11 12 12 10 6 5 3 -2 -6 -7 -5 -2 1 5 8 9 10 9 11
4 -3 1 1 -1 -1 0 2 -1 -1 -1 -2 -2 -2 -2 -3 -3 -4 -2 3 7 9 13 14 14 13 12 13 12 12 13 13 11 11 9 7 4 -2 -5 -5 -2 0 2 3 5 6 9 9 8
1 5 3 3 1 1 2 2 -0 -0 -1 -1 -1 -1 -1 -2 -2 -3 -3 -1 3 8 13 14 14 14 13 12 11 12 14 13 13 12 10 8 4 -2 -4 -2 0 2 4 5 6 6 7 8 8
4 4 5 4 2 2 3 2 1 -0 -1 0 1 1 1 0 -1 -1 -3 -1 4 8 12 13 14 13 11 11 10 10 12 12 11 9 8 5 0 -2 -2 -1 1 3 5 6 6 7 6 7 7
5 6 6 3 2 2 2 3 1 -1 1 1 1 2 3 1 -1 -1 -2 2 10 11 13 14 13 11 10 10 9 10 10 10 9 7 5 2 -0 -2 -3 -3 -2 3 4 4 4 3 4 5 6
5 6 5 4 2 1 2 3 2 1 1 -1 2 5 6 5 3 0 -0 8 12 13 13 13 12 10 9 10 10 9 8 9 7 6 3 2 1 -1 -2 -3 -3 -3 -1 0 1 1 1 2 3
6 3 3 3 4 5 1 5 3 1 1 0 3 6 6 7 8 7 7 9 12 13 13 13 13 13 12 11 10 10 7 8 8 7 5 2 2 2 2 2 -0 -3 -2 -2 -3 -2 -1 -2 1
4 2 3 3 4 3 3 4 3 2 2 1 1 5 6 7 7 8 8 9 10 11 12 12 11 11 10 10 9 7 6 6 6 5 4 4 4 4 4 4 3 0 -3 -3 -3 -6 -6 -7 -3
1 0 0 1 2 5 3 4 4 2 2 2 1 4 5 6 7 7 8 9 9 10 11 11 10 10 8 7 7 6 5 5 4 4 3 3 4 4 4 4 2 -1 -4 -6 -7 -6 -5 -6 -7
-1 1 5 6 6 6 2 4 3 2 1 0 1 2 3 4 3 4 6 8 9 9 10 10 9 7 5 3 1 -0 2 3 4 4 4 4 4 4 4 3 3 2 -1 -4 -7 -6 -5 -4 -4
1 2 6 8 6 4 3 6 3 1 -1 -0 0 1 2 -1 -3 -3 -0 2 3 4 3 3 1 -2 -5 -2 -0 -0 3 4 4 4 4 4 4 4 4 4 3 2 2 1 -2 -6 -5 -3 -4
2 3 1 4 4 4 4 4 2 1 -2 -3 -2 -1 -0 -0 -3 -5 -5 -5 -5 -6 -5 -4 -4 -3 -1 0 0 2 2 3 5 5 5 4 4 4 4 4 3 2 1 1 1 -0 -4 -4 -3
1 1 4 4 7 8 5 5 4 4 -0 -2 -4 -3 -2 -2 -2 1 1 -0 -1 -2 -4 -6 -7 -6 -8 -6 -6 -5 1 3 4 5 4 4 4 3 0 3 2 1 1 1 1 -1 -2 -3 -3
3 3 4 4 4 6 6 6 2 3 0 -2 -5 -6 -4 -2 -1 -2 -2 -1 -3 -3 -4 -6 -6 -6 -7 -7 -6 -1 1 3 4 4 4 4 3 3 2 2 3 2 2 2 1 -0 -2 -2 -3
1 3 4 5 6 4 4 4 -2 0 -3 -3 -4 -6 -9 -8 -9 -8 -10 -8 -4 -5 -4 -6 -5 -5 -5 -6 -6 -1 -2 -2 2 3 3 4 3 3 3 2 2 2 1 1 1 -0 -1 -3 -4
Wind_Speed
4 6 5 2 4 5 1 1 2 6 2 1 7 5 8 4 5 4 3 20 26 25 26 24 24 24 24 22 19 16 14 14 14 14 14 13 12 11 9 8 8 8 8 8 8 9 10 11 13
5 4 2 2 5 4 4 3 3 3 0 11 7 6 4 3 4 3 12 24 27 24 23 24 23 24 25 23 20 18 16 14 14 13 13 12 10 9 8 7 7 7 7 7 7 8 8 9 11
5 4 2 4 3 3 2 4 8 6 10 4 3 4 1 2 6 4 17 24 28 25 23 23 23 24 24 23 21 19 17 16 15 14 12 11 10 9 9 7 7 6 6 7 6 6 6 8 8
4 2 5 4 1 3 3 7 8 7 11 1 2 3 3 6 4 11 23 24 27 25 24 23 23 23 23 22 22 20 19 17 16 14 13 12 10 9 8 7 6 5 4 5 6 5 5 5 7
3 3 4 2 4 4 3 7 11 6 5 4 9 3 4 5 10 15 24 25 26 26 25 23 23 22 21 20 21 20 19 18 17 15 14 13 11 9 8 7 6 5 4 4 4 5 4 5 5
2 3 4 2 4 4 5 13 10 9 10 6 2 4 3 6 10 12 22 26 28 25 24 23 23 21 20 19 18 19 19 18 17 16 15 14 12 10 9 8 7 6 5 5 4 4 5 5 5
5 4 4 4 3 3 1 13 5 7 9 6 4 1 4 9 14 12 19 25 27 25 24 24 24 23 21 19 18 18 17 17 16 15 14 13 12 10 9 9 8 8 7 7 7 6 6 6 6
2 4 4 2 2 3 5 10 4 8 2 4 2 2 4 7 15 16 20 25 25 25 25 25 25 24 23 22 20 19 18 17 16 15 14 13 12 11 10 10 10 10 9 9 9 9 9 9 8
2 4 2 3 5 4 12 8 4 8 4 7 3 6 10 14 15 21 24 27 27 27 27 26 26 26 24 23 22 20 19 17 16 15 14 14 13 12 11 11 11 12 12 12 12 13 13 12 11
4 3 6 2 3 2 7 6 11 7 12 3 4 8 11 12 16 25 29 30 30 29 29 28 28 27 25 24 23 22 20 19 17 16 15 14 13 12 12 12 13 13 14 14 15 16 17 15 14
2 4 2 0 7 15 5 7 10 6 7 6 14 12 13 11 19 26 30 31 31 29 26 27 27 27 27 26 24 23 21 20 19 17 16 15 14 13 13 14 14 14 15 14 13 11 11 12 12
2 1 1 5 8 12 8 14 5 14 20 20 24 25 16 15 19 25 29 31 31 30 28 27 27 28 29 27 26 24 22 21 20 18 16 15 14 13 13 14 15 15 14 10 12 12 12 13 13
1 4 10 12 18 16 18 15 10 17 20 17 19 17 16 18 20 25 29 30 31 30 30 29 27 29 31 30 27 26 23 21 19 18 16 15 14 13 11 12 12 13 13 14 13 12 11 11 12
4 8 16 12 21 13 5 6 2 8 16 20 22 17 18 21 21 27 31 33 34 33 32 29 29 28 29 30 28 26 23 22 21 19 17 15 13 11 10 11 12 13 13 13 15 10 11 11 11
5 5 8 6 3 4 3 2 4 10 21 23 23 21 10 16 24 27 28 27 30 35 33 30 28 27 29 27 26 24 23 22 21 19 16 13 12 11 11 11 10 10 11 11 12 14 13 10 11
3 3 3 5 5 4 2 5 8 19 21 20 21 19 14 8 15 23 30 33 34 35 34 31 28 27 27 26 24 23 23 22 20 18 15 13 12 12 12 12 11 9 9 9 10 11 11 12 10
4 3 2 6 3 2 6 5 11 18 22 17 17 17 14 11 9 12 21 31 34 35 34 32 29 26 25 23 23 22 20 19 18 16 14 13 14 15 15 13 12 10 10 9 10 9 11 12 13
4 3 3 3 5 7 8 7 6 17 16 13 16 19 19 16 15 14 15 16 24 33 34 31 28 26 22 18 19 19 20 17 16 16 15 14 16 16 15 14 14 12 11 11 11 11 12 13 14
4 1 3 5 8 1 8 6 11 20 8 13 16 19 21 21 19 17 16 16 19 27 33 33 30 28 20 15 13 12 15 12 13 14 17 17 16 16 15 14 14 13 13 14 15 15 14 15 16
3 2 6 8 6 5 7 9 12 3 3 5 11 17 19 21 19 17 14 11 19 25 31 30 29 25 19 12 8 8 9 12 16 19 18 17 16 16 15 16 16 16 15 15 16 15 15 17 20
5 5 5 7 7 4 3 6 6 2 3 7 13 13 14 16 18 17 12 8 17 23 26 27 27 23 20 14 11 8 14 13 17 18 19 17 16 16 16 16 17 18 18 16 15 15 15 17 20
3 9 9 5 1 3 1 5 5 0 2 5 11 16 16 16 14 14 12 5 9 16 19 21 22 22 15 6 3 7 4 7 12 15 17 15 14 14 14 15 15 17 17 17 17 17 17 18 19
8 5 7 5 5 1 2 2 6 2 1 4 8 13 17 18 18 18 15 9 2 7 11 11 11 11 6 1 5 2 2 5 7 13 12 11 11 11 13 16 17 16 18 17 17 16 16 18 21
2 3 4 4 3 2 6 7 4 2 3 1 4 10 13 16 19 21 20 15 9 3 2 5 11 8 5 4 2 3 3 4 5 8 9 9 10 12 15 18 17 16 16 16 17 17 17 19 21
5 6 1 2 0 5 1 3 6 2 4 4 1 7 10 13 17 19 19 17 16 13 11 11 8 7 8 5 2 4 4 6 9 10 12 13 12 13 17 17 16 16 15 15 16 17 18 19 21
6 7 5 7 4 3 2 5 4 2 4 5 4 3 6 11 14 15 16 18 19 19 16 12 8 6 3 4 5 7 7 9 8 10 11 12 14 15 17 18 16 15 16 16 17 17 19 20 20
5 5 5 6 3 3 4 3 1 3 4 3 3 2 4 6 8 9 9 9 10 9 8 5 3 2 6 8 9 11 11 12 13 14 15 14 15 18 18 18 18 17 18 18 18 18 19 20 20
7 8 4 2 4 5 4 3 5 7 7 3 1 7 6 5 3 2 2 2 5 4 4 4 3 2 2 5 8 12 13 14 16 17 18 17 16 16 19 19 18 20 20 20 19 18 18 19 20
4 5 2 5 5 5 3 5 5 10 7 7 3 4 6 7 4 7 6 6 6 8 9 8 9 8 4 6 10 12 13 14 16 17 19 18 20 19 18 20 21 22 21 21 20 19 18 18 18
0 6 6 4 5 2 3 5 1 8 11 12 7 7 7 8 5 14 14 13 14 15 15 15 14 12 8 9 12 12 13 13 15 15 16 17 18 17 20 22 21 25 25 23 21 19 18 17 17
Wind_Direction
7 333 322 342 48 64 340 250 288 310 269 99 150 166 184 166 167 208 214 166 170 173 171 175 178 177 183 188 187 186 179 171 163 159 158 159 160 157 152 147 139 130 119 111 100 94 89 88 90
355 1 357 48 82 62 290 253 221 322 268 125 124 103 121 212 218 264 161 161 168 173 173 178 180 181 185 189 191 189 186 180 174 169 164 163 162 162 163 161 151 143 131 120 118 111 104 102 106
350 26 34 83 105 140 227 301 296 310 165 168 82 48 130 287 201 217 172 164 167 175 176 179 182 183 187 189 191 192 190 187 184 178 172 171 169 170 171 174 166 155 146 138 131 124 123 120 122
356 74 61 75 275 253 215 298 314 329 211 304 305 315 263 212 210 172 168 173 171 176 180 180 182 182 187 188 190 191 191 189 189 185 182 178 179 178 177 177 179 172 168 157 149 151 146 145 143
16 75 60 60 286 265 258 303 338 354 112 173 161 226 240 221 182 176 175 179 180 181 184 186 184 182 185 185 187 189 189 190 191 189 189 189 187 186 184 189 192 192 189 197 180 172 174 168 177
49 80 72 197 258 286 299 345 346 17 26 112 188 178 234 213 204 191 186 184 185 188 189 192 187 188 188 188 189 189 189 191 193 194 193 194 195 196 194 197 203 207 210 217 222 210 198 202 197
114 86 181 178 250 292 303 354 25 350 17 24 72 128 279 231 208 206 194 188 189 194 199 198 194 193 195 194 194 194 194 195 197 198 199 200 204 206 207 207 214 222 224 228 238 242 234 227 221
105 92 131 249 215 263 8 359 5 5 356 356 260 267 297 285 210 197 192 190 196 202 207 205 202 202 202 200 200 199 199 200 202 203 205 207 210 216 220 222 227 232 240 242 244 248 252 248 244
118 64 163 219 162 281 356 3 354 337 318 334 338 337 317 311 227 197 195 197 204 208 211 211 210 209 208 206 204 203 203 205 205 208 210 215 220 225 232 238 241 245 247 250 253 255 255 257 255
82 108 221 266 344 13 319 347 330 340 312 220 339 298 310 293 233 207 204 205 207 211 211 213 216 214 214 211 210 208 208 209 212 214 219 224 228 234 243 249 251 254 258 260 258 258 258 256 261
54 175 184 148 348 342 323 322 322 310 299 298 295 286 293 253 226 217 217 218 217 216 215 214 216 218 220 219 216 214 213 214 217 220 222 228 234 242 249 254 259 261 260 267 276 263 267 283 274
1 232 144 299 319 324 304 307 270 268 274 290 293 293 277 243 228 226 228 229 227 221 219 219 221 222 224 223 223 221 218 219 221 224 227 232 239 245 252 258 262 263 260 257 258 260 266 265 265
261 327 309 302 304 291 284 258 267 282 311 324 314 283 262 239 233 236 234 235 235 231 228 229 231 232 227 224 223 223 220 221 222 225 229 234 241 250 255 262 265 264 260 253 255 256 261 263 266
314 294 297 301 293 281 230 269 219 317 342 334 340 312 262 244 239 237 235 240 239 237 234 234 238 236 224 222 223 224 220 220 223 227 230 235 240 251 260 266 272 265 259 254 257 247 251 238 251
306 319 328 275 302 292 318 317 234 324 336 330 336 349 301 260 245 245 246 251 252 241 238 237 238 233 225 224 224 222 222 224 226 230 229 231 244 257 266 273 278 268 258 255 245 248 245 247 246
347 73 15 298 336 335 55 283 293 332 338 331 332 347 345 305 267 261 253 250 253 246 240 240 236 231 226 225 228 230 227 225 224 225 231 244 263 272 270 274 272 264 260 252 243 243 241 242 246
346 255 202 311 355 354 59 297 293 318 327 325 333 336 347 336 312 281 262 256 252 253 244 240 237 229 225 225 233 230 221 224 228 235 244 263 277 285 281 273 269 265 258 253 251 246 240 235 236
216 238 246 239 295 18 320 281 288 301 305 311 330 337 335 331 330 314 274 262 253 249 246 241 234 228 226 239 241 235 227 227 233 241 251 269 278 278 277 274 270 268 263 259 256 255 252 242 231
91 301 297 260 259 344 269 274 281 285 293 344 344 342 337 333 325 316 302 266 248 243 241 236 226 226 228 242 254 255 231 227 251 261 266 274 280 280 279 278 276 272 263 263 263 261 251 234 223
194 274 281 280 277 165 280 287 268 347 64 11 357 355 350 341 339 334 316 275 256 246 240 231 224 226 227 213 264 304 303 292 284 283 288 291 287 289 292 288 282 274 269 268 269 266 251 233 225
212 190 231 226 349 301 312 292 310 45 57 23 26 15 19 9 357 355 340 269 234 236 238 230 226 222 219 194 200 213 291 307 297 306 304 302 299 297 298 298 290 283 279 273 265 257 251 242 227
209 204 224 237 109 235 25 282 301 187 44 8 23 37 35 32 30 30 18 333 239 234 231 223 216 204 183 160 204 260 221 241 303 298 303 303 306 310 312 310 300 288 279 273 265 259 251 242 232
225 167 196 210 193 105 298 330 268 25 6 352 350 44 49 51 52 52 52 44 344 248 238 232 198 158 145 351 340 43 15 347 326 296 307 315 321 325 325 322 310 296 282 273 269 264 257 244 232
181 127 58 55 116 267 220 179 276 209 218 233 346 48 55 62 66 68 67 64 67 85 166 157 145 129 79 40 319 6 333 304 280 296 299 307 319 322 325 323 315 303 290 280 270 264 258 249 240
140 117 316 351 213 223 40 138 244 200 159 158 147 63 64 72 74 78 80 83 85 94 106 126 125 111 102 88 14 331 295 276 281 294 308 314 318 322 317 320 318 310 302 294 279 268 262 256 247
181 162 158 199 196 230 271 233 266 169 109 137 145 92 86 88 83 79 85 91 95 100 106 117 130 146 173 260 279 292 277 275 282 288 294 297 305 304 312 305 307 311 314 310 299 284 270 261 251
183 189 174 104 38 75 230 268 37 122 94 178 168 176 141 125 101 80 85 103 112 109 112 128 163 243 292 300 302 301 296 294 291 295 296 295 302 304 310 309 303 302 304 305 300 297 282 270 260
172 169 99 3 167 220 246 251 222 182 193 204 271 217 197 174 156 150 175 166 160 169 168 179 224 229 339 301 298 292 289 289 287 286 290 288 288 293 302 292 288 289 294 294 293 290 283 273 263
151 186 109 130 152 175 176 249 214 183 158 166 162 37 265 249 285 332 314 249 242 239 232 239 231 221 251 286 291 281 278 279 282 286 291 289 292 291 295 294 286 283 283 285 285 285 282 272 263
63 196 149 151 215 278 134 260 320 140 134 147 131 81 62 54 352 326 318 310 275 260 246 246 234 236 256 278 287 276 269 275 278 282 286 286 289 290 289 288 287 281 276 276 275 276 272 267 260
Height
1512 1512 1511 1510 1521 1524 1530 1521 1516 1513 1507 1505 1508 1507 1507 1507 1510 1525 1507 1508 1513 1518 1521 1525 1528 1530 1533 1536 1538 1541 1542 1543 1545 1546 1547 1549 1550 1551 1553 1554 1556 1556 1558 1558 1558 1558 1559 1560 1560
1512 1512 1512 1511 1530 1539 1532 1518 1516 1509 1505 1505 1506 1507 1507 1507 1507 1506 1507 1509 1514 1518 1521 1524 1527 1530 1531 1535 1538 1540 1542 1544 1545 1547 1548 1549 1551 1552 1553 1555 1557 1558 1558 1559 1560 1560 1561 1561 1562
1512 1512 1513 1522 1541 1538 1533 1515 1509 1507 1505 1505 1507 1507 1508 1507 1506 1506 1506 1510 1513 1517 1520 1523 1526 1529 1531 1533 1536 1539 1542 1544 1546 1547 1549 1551 1552 1554 1555 1557 1558 1559 1559 1560 1561 1561 1562 1562 1564
1512 1514 1517 1529 1528 1523 1521 1514 1510 1506 1505 1504 1507 1510 1509 1508 1506 1507 1509 1512 1513 1517 1520 1522 1525 1528 1530 1532 1535 1538 1540 1543 1546 1547 1549 1551 1552 1553 1556 1556 1558 1559 1561 1561 1562 1562 1563 1563 1564
1513 1514 1529 1534 1530 1521 1516 1513 1510 1507 1508 1508 1509 1510 1509 1506 1507 1507 1510 1512 1516 1518 1521 1523 1525 1528 1531 1533 1534 1536 1539 1542 1545 1547 1548 1550 1551 1553 1555 1557 1558 1559 1560 1562 1563 1564 1563 1564 1565
1513 1515 1534 1540 1530 1519 1514 1512 1510 1508 1507 1509 1509 1509 1508 1506 1508 1509 1511 1513 1517 1519 1521 1524 1526 1529 1531 1534 1536 1537 1539 1541 1544 1545 1547 1549 1550 1551 1553 1555 1557 1559 1560 1561 1563 1564 1564 1564 1565
1514 1521 1531 1531 1527 1520 1514 1512 1511 1510 1508 1508 1508 1509 1508 1506 1508 1510 1512 1515 1517 1520 1523 1523 1524 1527 1530 1533 1535 1538 1540 1542 1544 1545 1547 1548 1550 1551 1553 1553 1555 1557 1558 1559 1561 1563 1564 1564 1564
1514 1518 1528 1526 1528 1522 1515 1514 1513 1511 1510 1510 1510 1509 1507 1507 1507 1509 1512 1515 1517 1519 1521 1523 1524 1526 1528 1531 1533 1536 1538 1541 1543 1545 1547 1548 1549 1551 1552 1553 1554 1555 1557 1557 1558 1560 1562 1563 1563
1515 1527 1533 1522 1525 1519 1516 1515 1513 1512 1510 1510 1509 1508 1507 1506 1507 1509 1511 1513 1515 1517 1519 1522 1524 1525 1528 1529 1532 1535 1537 1540 1541 1544 1545 1547 1548 1549 1551 1552 1552 1553 1555 1555 1556 1557 1559 1560 1561
1515 1529 1526 1519 1518 1519 1517 1516 1513 1512 1509 1509 1509 1507 1507 1505 1504 1507 1508 1510 1512 1515 1517 1520 1522 1524 1527 1529 1530 1532 1535 1537 1540 1541 1544 1546 1547 1548 1549 1551 1551 1551 1553 1554 1553 1553 1555 1557 1558
1517 1522 1518 1518 1519 1518 1516 1514 1513 1510 1504 1505 1504 1503 1502 1502 1501 1503 1507 1509 1509 1513 1517 1518 1521 1523 1525 1527 1529 1530 1532 1535 1537 1539 1541 1543 1544 1545 1546 1548 1549 1549 1550 1551 1552 1552 1552 1554 1555
1520 1516 1516 1516 1516 1517 1515 1512 1510 1508 1503 1502 1502 1500 1499 1501 1501 1501 1501 1504 1507 1509 1513 1516 1518 1520 1523 1525 1527 1529 1530 1533 1535 1536 1538 1540 1541 1543 1543 1545 1546 1547 1547 1549 1551 1551 1552 1552 1553
1519 1518 1516 1515 1513 1512 1510 1508 1509 1505 1501 1500 1497 1496 1497 1497 1499 1500 1502 1502 1503 1505 1508 1512 1515 1516 1517 1521 1524 1526 1527 1530 1532 1534 1536 1538 1538 1540 1540 1541 1542 1543 1544 1546 1548 1550 1550 1551 1552
1518 1516 1515 1511 1508 1507 1507 1505 1505 1501 1500 1497 1494 1491 1492 1493 1494 1497 1498 1499 1499 1501 1504 1508 1510 1513 1515 1517 1520 1523 1526 1529 1530 1531 1533 1536 1537 1537 1538 1538 1540 1540 1541 1542 1545 1548 1548 1549 1550
1516 1518 1512 1508 1506 1504 1504 1505 1504 1500 1498 1494 1492 1490 1488 1489 1492 1491 1492 1495 1495 1498 1501 1504 1507 1511 1513 1516 1519 1522 1524 1527 1529 1531 1532 1533 1535 1535 1536 1536 1537 1538 1539 1541 1541 1545 1546 1547 1549
1518 1519 1522 1508 1507 1505 1505 1514 1500 1497 1496 1493 1490 1489 1488 1488 1488 1488 1489 1491 1492 1493 1496 1500 1504 1508 1511 1515 1519 1521 1522 1525 1527 1529 1531 1532 1534 1534 1533 1534 1535 1536 1537 1538 1539 1542 1544 1545 1546
1524 1526 1522 1516 1508 1507 1509 1512 1501 1497 1494 1490 1488 1486 1487 1485 1485 1485 1487 1488 1489 1490 1495 1499 1501 1506 1509 1513 1516 1518 1521 1524 1527 1529 1531 1532 1532 1532 1533 1533 1534 1535 1534 1535 1538 1539 1542 1543 1544
1524 1525 1523 1522 1510 1507 1511 1509 1501 1497 1495 1492 1488 1486 1485 1483 1483 1483 1483 1483 1484 1487 1490 1495 1500 1505 1509 1514 1517 1518 1521 1523 1526 1528 1529 1529 1530 1530 1531 1531 1532 1533 1535 1535 1536 1537 1540 1542 1542
1517 1522 1525 1520 1510 1512 1509 1507 1501 1493 1494 1492 1490 1487 1484 1481 1480 1480 1478 1479 1480 1481 1484 1488 1495 1500 1508 1512 1517 1519 1522 1524 1526 1527 1527 1527 1528 1529 1528 1529 1530 1531 1533 1534 1534 1535 1536 1538 1540
1517 1523 1525 1516 1507 1512 1508 1505 1496 1493 1494 1493 1491 1488 1485 1482 1479 1477 1475 1475 1478 1480 1482 1487 1493 1498 1503 1507 1513 1520 1523 1524 1526 1527 1526 1525 1527 1527 1527 1527 1527 1529 1530 1531 1532 1533 1534 1534 1537
1518 1522 1521 1519 1511 1508 1507 1507 1498 1495 1493 1492 1491 1489 1486 1482 1479 1476 1474 1474 1478 1481 1484 1486 1489 1495 1502 1506 1508 1513 1517 1521 1524 1524 1524 1525 1526 1526 1525 1525 1525 1526 1526 1527 1527 1529 1531 1533 1534
1519 1509 1510 1514 1519 1527 1508 1525 1503 1496 1496 1494 1491 1489 1485 1481 1479 1476 1475 1476 1478 1482 1486 1488 1491 1495 1501 1508 1511 1513 1514 1518 1523 1522 1523 1525 1525 1525 1524 1523 1522 1522 1522 1523 1524 1525 1527 1528 1531
1510 1504 1509 1512 1519 1519 1516 1524 1506 1500 1500 1499 1495 1492 1489 1484 1481 1478 1477 1478 1480 1482 1487 1493 1496 1502 1508 1511 1513 1514 1516 1518 1520 1522 1522 1522 1521 1520 1521 1521 1519 1518 1518 1518 1521 1521 1523 1523 1525
1498 1504 1511 1515 1520 1530 1516 1517 1513 1505 1500 1500 1499 1497 1494 1490 1486 1483 1481 1481 1483 1486 1490 1493 1498 1504 1507 1511 1513 1514 1517 1519 1520 1521 1519 1517 1516 1517 1516 1516 1515 1515 1515 1515 1515 1516 1518 1519 1519
1499 1508 1529 1529 1532 1528 1512 1519 1506 1497 1496 1498 1499 1499 1498 1496 1493 1489 1486 1487 1487 1488 1492 1497 1501 1504 1505 1508 1510 1511 1513 1515 1516 1517 1519 1517 1515 1513 1515 1514 1512 1511 1512 1512 1511 1511 1512 1515 1515
1498 1501 1519 1522 1528 1523 1513 1516 1502 1496 1496 1497 1498 1499 1501 1500 1498 1496 1493 1492 1491 1491 1494 1497 1499 1501 1503 1505 1505 1505 1508 1509 1509 1511 1512 1512 1513 1511 1510 1510 1509 1509 1508 1508 1509 1508 1508 1510 1510
1495 1502 1497 1518 1526 1536 1513 1502 1496 1495 1497 1498 1498 1500 1501 1501 1501 1501 1500 1497 1495 1495 1495 1496 1499 1501 1502 1505 1506 1506 1506 1506 1507 1508 1507 1507 1508 1509 1506 1506 1506 1507 1506 1505 1505 1504 1505 1505 1506
1480 1485 1505 1517 1521 1519 1513 1507 1501 1497 1498 1497 1497 1498 1499 1500 1501 1502 1502 1501 1500 1499 1497 1496 1497 1498 1499 1502 1503 1503 1503 1503 1503 1503 1504 1503 1504 1505 1502 1503 1503 1503 1503 1503 1502 1501 1501 1501 1503
1483 1486 1488 1493 1505 1509 1512 1505 1487 1487 1492 1497 1498 1497 1497 1498 1501 1503 1502 1501 1500 1499 1497 1496 1496 1496 1496 1498 1499 1499 1499 1499 1498 1498 1499 1500 1500 1500 1499 1498 1498 1498 1498 1498 1498 1498 1497 1498 1500
1471 1474 1480 1498 1499 1510 1511 1496 1481 1484 1489 1493 1494 1495 1497 1497 1498 1499 1500 1499 1498 1497 1495 1494 1494 1494 1494 1493 1494 1495 1494 1493 1494 1494 1494 1495 1495 1495 1495 1494 1494 1494 1494 1495 1495 1495 1494 1494 1495